Regional Weather Roundup
Issued by NWS

Home | Current Version | Previous Version | Graphics & Text | Print | Product List | Glossary On
Versions: 1 2 3 4 5 6 7 8 9 10 11 12 13 14 15 16 17 18 19 20 21 22 23 24 25 26 27 28 29 30 31 32 33 34 35 36 37 38 39 40 41 42 43 44 45 46 47 48 49 50
000
ASUS43 KLMK 030810
RWRKY
KENTUCKY REGIONAL WEATHER ROUNDUP
NATIONAL WEATHER SERVICE LOUISVILLE KY
300 AM EST SAT DEC 03 2016

NOTE "FAIR" INDICATES FEW OR NO CLOUDS BELOW 12,000 FEET
WITH NO SIGNIFICANT WEATHER AND/OR OBSTRUCTIONS TO VISIBILITY.

KYZ001>023-026-027-061>063-070>075-030900-
WESTERN AND SOUTH CENTRAL KENTUCKY

CITY           SKY/WX    TMP DP  RH WIND       PRES   REMARKS
PADUCAH        CLOUDY    38  30  73 CALM      30.36S
HENDERSON      PTCLDY    27  23  86 CALM      30.37S
OWENSBORO      NOT AVBL
HOPKINSVILLE   PTCLDY    35  32  88 N3        30.34S
BOWLING GREEN  PTCLDY    33  29  85 CALM      30.36R
GLASGOW        CLOUDY    31  31 100 CALM      30.35S
$$

KYZ024-025-028>034-038-045-046-053-030900-
NORTH CENTRAL KENTUCKY

CITY           SKY/WX    TMP DP  RH WIND       PRES   REMARKS
LOUISVILLE/SDF CLOUDY    41  29  62 W5        30.36R
LOUISVILLE/LOU CLOUDY    41  31  67 NW3       30.36R
FORT KNOX      CLOUDY    38  30  70 W3        30.33S
$$

KYZ035>037-039>044-047>052-055>060-089>105-030900-
NORTHEAST KENTUCKY

CITY           SKY/WX    TMP DP  RH WIND       PRES   REMARKS
LEXINGTON      NOT AVBL
COVINGTON      CLOUDY    37  35  92 CALM      30.31S
FRANKFORT      CLOUDY    39  31  72 CALM      30.33R
$$

KYZ054-064>069-076>088-106>120-030900-
SOUTHEAST KENTUCKY

CITY           SKY/WX    TMP DP  RH WIND       PRES   REMARKS
JACKSON        CLOUDY    35  30  82 CALM      30.32R
LONDON         CLOUDY    31  27  85 CALM      30.32F
SOMERSET       CLOUDY    30  30 100 CALM      30.35S
MIDDLESBORO    CLEAR     30  29  96 CALM      30.33S
MONTICELLO     NOT AVBL
$$





USA.gov is the U.S. government's official web portal to all federal, state and local government web resources and services.